AC4DE-1 Weather Reports


time (UTC)temp
F
wind
direction
speed
knots
gust
knots
rain 1hr
in
rain 24hr
in
rain mn
in
humidity
%
barometer
mb
20260503190355 65 236 0.9 0.0 0.00 0.00 0.00 44 1020.7
20260503185854 65 246 0.9 0.0 0.00 0.00 0.00 41 1020.7
20260503185354 65 192 1.7 0.0 0.00 0.00 0.00 42 1020.7
20260503184852 64 203 1.7 0.0 0.00 0.00 0.00 46 1020.8
20260503184352 64 270 0.9 0.0 0.00 0.00 0.00 44 1020.8
20260503183852 64 62 0.9 0.0 0.00 0.00 0.00 42 1020.9
20260503183352 64 159 0.9 0.0 0.00 0.00 0.00 41 1021.0
20260503182351 63 319 0.9 0.0 0.00 0.00 0.00 46 1021.0
20260503181848 62 159 1.7 0.0 0.00 0.00 0.00 47 1021.0
20260503181348 62 209 0.9 0.0 0.00 0.00 0.00 46 1021.2
20260503180847 62 168 1.7 0.0 0.00 0.00 0.00 44 1021.1
20260503180346 63 177 1.7 0.0 0.00 0.00 0.00 43 1021.3
20260503175845 63 161 0.9 0.0 0.00 0.00 0.00 50 1021.4
20260503175345 62 137 0.9 0.0 0.00 0.00 0.00 47 1021.5
20260503174845 62 74 0.9 0.0 0.00 0.00 0.00 47 1021.6
20260503174345 62 119 0.0 0.0 0.00 0.00 0.00 44 1021.7
20260503173844 62 200 1.7 0.0 0.00 0.00 0.00 46 1021.7
20260503173344 61 330 0.9 0.0 0.00 0.00 0.00 46 1021.7
20260503172843 61 330 0.9 0.0 0.00 0.00 0.00 46 1021.7
20260503171842 60 301 0.9 0.0 0.00 0.00 0.00 49 1021.9
20260503171340 59 161 0.9 0.0 0.00 0.00 0.00 46 1022.0
20260503170840 59 310 1.7 0.0 0.00 0.00 0.00 48 1022.0
20260503170339 60 143 1.7 0.0 0.00 0.00 0.00 47 1022.0
20260503150829 54 125 0.0 0.0 0.00 0.00 0.00 73 1022.8
20260503150328 54 110 0.9 0.0 0.00 0.00 0.00 74 1022.8
20260503131251 45 127 0.0 0.0 0.00 0.00 0.00 90 1022.7
20260503130751 45 130 0.0 0.0 0.00 0.00 0.00 90 1022.6
20260503130251 45 360 0.0 0.0 0.00 0.00 0.00 91 1022.6
20260503110726 40 221 0.0 0.0 0.00 0.00 0.00 93 1021.4
20260503110226 40 222 0.0 0.0 0.00 0.00 0.00 93 1021.5
20260503090217 40 360 0.0 0.0 0.00 0.00 0.00 91 1020.8
20260503081211 41 360 0.0 0.0 0.00 0.00 0.00 91 1020.7
20260503080210 42 360 0.0 0.0 0.00 0.00 0.00 90 1020.6
20260503072154 43 360 0.0 0.0 0.00 0.00 0.00 91 1020.3
20260503071655 43 360 0.0 0.0 0.00 0.00 0.00 91 1020.2
20260503071153 43 360 0.0 0.0 0.00 0.00 0.00 91 1020.3
20260503070653 43 360 0.0 0.0 0.00 0.00 0.00 91 1020.3
20260503070153 43 254 0.0 0.0 0.00 0.00 0.00 90 1020.2
20260503060142 44 254 0.0 0.0 0.00 0.00 0.00 90 1020.3
20260503054640 44 360 0.0 0.0 0.00 0.00 0.00 90 1020.2
20260503053638 44 360 0.0 0.0 0.00 0.00 0.00 90 1020.1
20260503053137 44 360 0.0 0.0 0.00 0.00 0.00 90 1020.2
20260503052636 44 360 0.0 0.0 0.00 0.00 0.00 90 1020.1
20260503052135 44 253 0.0 0.0 0.00 0.00 0.00 90 1020.1
20260503051631 44 253 0.0 0.0 0.00 0.00 0.00 90 1020.1
20260503050631 44 253 0.0 0.0 0.00 0.00 0.00 90 1020.0
20260503045629 44 360 0.0 0.0 0.00 0.02 0.00 90 1019.8
20260503045129 44 360 0.0 0.0 0.00 0.02 0.00 89 1019.8
20260503044626 45 360 0.0 0.0 0.00 0.02 0.00 89 1019.7
20260503044125 45 360 0.0 0.0 0.00 0.02 0.00 89 1019.7
20260503043625 45 253 0.0 0.0 0.00 0.02 0.00 89 1019.7
20260503043125 45 360 0.0 0.0 0.00 0.02 0.00 90 1019.7
20260503042624 45 360 0.0 0.0 0.00 0.02 0.00 90 1019.7
20260503042124 45 360 0.0 0.0 0.00 0.02 0.00 90 1019.7
20260503041624 45 253 0.0 0.0 0.00 0.02 0.00 89 1019.6
20260503041123 45 360 0.0 0.0 0.00 0.02 0.00 89 1019.6
20260503040624 45 360 0.0 0.0 0.00 0.02 0.00 89 1019.6
20260503040123 45 360 0.0 0.0 0.00 0.02 0.00 89 1019.6
20260503035623 45 360 0.0 0.0 0.00 0.02 0.00 89 1019.6
20260503035122 45 360 0.0 0.0 0.00 0.02 0.00 89 1019.6
20260503034557 45 360 0.0 0.0 0.00 0.02 0.00 89 1019.6
20260503033556 46 360 0.0 0.0 0.00 0.02 0.00 88 1019.7
20260503033054 46 360 0.0 0.0 0.00 0.02 0.00 87 1019.6
20260503032553 46 253 0.0 0.0 0.00 0.02 0.00 87 1019.7
20260503032054 46 253 0.0 0.0 0.00 0.02 0.00 87 1019.6
20260503031552 46 360 0.0 0.0 0.00 0.02 0.00 87 1019.6
20260503030552 47 360 0.0 0.0 0.00 0.02 0.00 86 1019.5
20260503030052 47 360 0.0 0.0 0.00 0.02 0.00 86 1019.5
20260503025551 47 360 0.0 0.0 0.00 0.02 0.00 86 1019.4
20260503025051 47 360 0.0 0.0 0.00 0.02 0.00 86 1019.5
20260503024550 47 360 0.0 0.0 0.00 0.02 0.00 87 1019.4
20260503024050 47 360 0.0 0.0 0.00 0.02 0.00 86 1019.4
20260503023551 47 360 0.0 0.0 0.00 0.02 0.00 87 1019.3
20260503023050 47 360 0.0 0.0 0.00 0.02 0.00 87 1019.3
20260503022549 48 258 0.0 0.0 0.00 0.02 0.00 86 1019.2
20260503022049 48 360 0.0 0.0 0.00 0.02 0.00 86 1019.1
20260503021548 48 259 0.0 0.0 0.00 0.02 0.00 86 1019.0
20260503021048 48 270 0.0 0.0 0.00 0.02 0.00 86 1018.8
20260503020546 48 360 0.0 0.0 0.00 0.02 0.00 86 1018.7
20260503020045 48 270 0.0 0.0 0.00 0.02 0.00 86 1018.7
20260503015545 48 270 0.0 0.0 0.00 0.02 0.00 85 1018.9
20260503015045 49 360 0.0 0.0 0.00 0.02 0.00 85 1018.8
20260503014544 49 360 0.0 0.0 0.00 0.02 0.00 84 1018.8